アトラス彗星

P/2019 M2 ( ATLAS )

English version
Home page
Updated on August 25, 2024

---------------------------------------------------------------------

・ プロフィール

発見日 2019年6月29日
発見光度 18.3等
発見者 Asteroid Terrestrial-Impact Last Alert System (ATLAS) search program

・ 写真集

・ 軌道要素

                    Epoch = 2019 June  6.0 TT
     T = 2019 June 22.66928 TT        Peri. = 332.51891
     e = 0.6486817                    Node  = 307.60604 2000.0
     q = 1.0633976 AU                 Incl. =  12.28094
       a =  3.0268783 AU   n = 0.18715939   P =   5.27 years

・ 光度変化

        H = 18.5  G = 0.15

---------------------------------------------------------------------

軌道要素は、CBET 5433に掲載されたものです。
光度グラフはComet for Windowsで作成したものです。

---------------------------------------------------------------------

Copyright(C) Seiichi Yoshida (comet@aerith.net). All rights reserved.